Weather History for Springfield, CO

Change the Weather History Date:

Tuesday, October 9, 2012

  Actual Average Record
Temperature  
Mean Temperature 53 °F -  
Max Temperature 70 °F 72 °F 86 °F (2003)
Min Temperature 35 °F 41 °F 33 °F (2000)
Degree Days  
Heating Degree Days 12 9  
Month to date heating degree days 129 69  
Since 1 July heating degree days 195 159  
Cooling Degree Days 0 1  
Month to date cooling degree days 3 9  
Year to date cooling degree days 1419 1026  
Growing Degree Days 2 (Base 50)    
Moisture  
Dew Point 30 °F    
Average Humidity 48    
Maximum Humidity 79    
Minimum Humidity 16    
Precipitation  
Precipitation 0.00 in 0.04 in 0.77 in (2014)
Month to date precipitation 0.06 0.46  
Year to date precipitation 7.18 15.53  
Sea Level Pressure  
Sea Level Pressure 29.91 in    
Wind  
Wind Speed 13 mph (NNE)    
Max Wind Speed 22 mph    
Max Gust Speed 30 mph    
T = Trace of Precipitation, MM = Missing Value Source: NWS Daily Summary

Daily Weather History Graph

Daily Weather History Graph

Search for Another Location

Airport:

Trip Planner

Search our weather history database for the weather conditions in past years. The results will help you decide how hot, cold, wet, or windy it might be!

Date:

Astronomy

Oct. 09, 2012 Rise Set
Actual Time 6:53 AM MDT 6:21 PM MDT
Civil Twilight 6:27 AM MDT 6:47 PM MDT
Nautical Twilight 5:57 AM MDT 7:17 PM MDT
Astronomical Twilight 5:26 AM MDT 7:47 PM MDT
Moon 12:39 AM MDT (10/9) 2:43 PM MDT (10/9)
Length of Visible Light 12h 19m
Length of Day
11h 27m
Last Quarter, 36% of the Moon is Illuminated
Oct 9
Last Quarter
Oct 15
New
Oct 21
First Quarter
Oct 29
Full
Nov 6
Last Quarter

Hourly Weather History & Observations

Time (MDT) Temp. Windchill Dew Point Humidity Pressure Visibility Wind Dir Wind Speed Gust Speed Precip Events Conditions
12:56 AM 48.0 °F - 28.0 °F 46% 29.74 in - WNW 12.7 mph - N/A   Unknown
1:56 AM 51.1 °F - 23.0 °F 33% 29.73 in - NW 13.8 mph - N/A   Unknown
2:56 AM 48.0 °F - 23.0 °F 37% 29.73 in - NW 12.7 mph - N/A   Unknown
3:56 AM 48.0 °F - 21.9 °F 36% 29.74 in - NW 13.8 mph - N/A   Unknown
4:56 AM 48.9 °F - 21.0 °F 33% 29.75 in - WNW 11.5 mph - N/A   Unknown
5:56 AM 48.9 °F - 21.0 °F 33% 29.78 in - NW 13.8 mph - N/A   Unknown
6:56 AM 48.0 °F - 21.9 °F 36% 29.83 in - NW 10.4 mph - N/A   Unknown
7:56 AM 54.0 °F - 24.1 °F 31% 29.82 in - NW 11.5 mph - N/A   Unknown
8:56 AM 64.9 °F - 23.0 °F 20% 29.81 in - NW 13.8 mph - N/A   Unknown
9:56 AM 66.0 °F - 19.0 °F 17% 29.85 in - North 17.3 mph - N/A   Unknown
10:56 AM 64.9 °F - 21.9 °F 19% 29.87 in - NNE 20.7 mph 25.3 mph N/A   Unknown
11:56 AM 60.1 °F - 34.0 °F 38% 29.91 in - NE 18.4 mph 25.3 mph N/A   Unknown
12:56 PM 61.0 °F - 37.0 °F 41% 29.91 in - NE 20.7 mph - N/A   Unknown
1:56 PM 62.1 °F - 37.9 °F 41% 29.90 in - ENE 20.7 mph - N/A   Unknown
2:56 PM 62.1 °F - 37.0 °F 39% 29.93 in - ENE 18.4 mph 25.3 mph N/A   Unknown
3:56 PM 62.1 °F - 37.0 °F 39% 29.92 in - East 20.7 mph 26.5 mph N/A   Unknown
4:56 PM 57.9 °F - 36.0 °F 44% 29.97 in - East 15.0 mph 20.7 mph N/A   Unknown
5:56 PM 54.0 °F - 36.0 °F 51% 30.01 in - East 13.8 mph - N/A   Unknown
6:56 PM 48.9 °F - 36.0 °F 61% 30.06 in - ENE 11.5 mph - N/A   Unknown
7:56 PM 45.0 °F 38.5 °F 36.0 °F 71% 30.09 in - NE 13.8 mph - N/A   Unknown
8:56 PM 46.9 °F - 37.0 °F 68% 30.10 in - NE 9.2 mph - N/A   Unknown
9:56 PM 46.0 °F 41.4 °F 36.0 °F 68% 30.12 in - NE 9.2 mph - N/A   Unknown
10:56 PM 39.9 °F 35.1 °F 34.0 °F 79% 30.16 in - NNE 6.9 mph - N/A   Unknown
11:56 PM 39.0 °F - 34.0 °F 82% 30.17 in - Calm Calm - N/A   Unknown